[[{"header":{"parameterUnit":"m.s-1","parameterCategory":1,"la1":30.2991,"la2":30.254,"lo1":-89.0895,"lo2":-89.0444,"dy":0.0017,"dx":0.0017,"nx":28,"ny":28,"refTime":"2025-05-29T21:00:00:Z","depth":0,"parameterNumber":2,"parameterNumberName":"U-component_of_WINDS"},"data":[0,0,0,0,0,0,0,0,0,0,0,0,0,0,0,0,0,0,0,0,0,0,0,0,0,0,0,0,0,0,0,0,0,0,0,0,0,0,0,0,0,0,0,0,0,0,0,0,0,0,0,0,0,0,0,0,0,0,3.1862,3.1863,0,3.1997,3.1999,3.2,3.1947,3.1944,3.1941,3.1938,3.2079,3.2086,3.2092,0,0,0,0,0,0,0,0,0,0,0,0,0,3.1556,3.1562,3.1861,3.1863,3.1865,3.1997,3.1999,3.2001,3.1948,3.1944,3.194,3.1936,3.2077,3.2085,3.2093,0,0,0,0,0,0,0,0,0,0,0,0,0,3.169,3.1564,3.1861,3.1854,3.1855,3.1997,3.1999,3.2001,3.1949,3.1944,3.1939,3.1935,3.2074,3.2084,3.2094,3.2251,0,0,3.2125,3.2129,0,0,0,0,0,0,0,0,3.1683,3.1701,3.1854,3.1855,3.1856,3.195,3.1943,3.2085,3.195,3.1913,3.1938,3.1932,3.204,3.2053,3.2089,3.2258,3.2264,3.2126,3.2132,3.2136,3.2139,0,0,0,0,0,0,0,3.1673,3.1695,3.1915,3.1856,3.1857,3.1844,3.1858,3.197,3.2002,3.1916,3.1912,3.1929,3.204,3.2079,3.2092,3.2266,3.2125,3.2134,3.214,3.2144,3.2567,3.2572,0,0,0,0,0,0,3.1664,3.1688,3.1911,3.1919,3.1756,3.1854,3.1869,3.1925,3.2,3.2007,3.1933,3.1926,3.2064,3.208,3.2096,3.2283,3.2136,3.2145,3.2151,3.2562,3.2569,3.2574,0,0,0,0,0,0,3.1657,3.1684,3.1905,3.1803,3.183,3.1864,3.1927,3.193,3.1969,3.2013,3.2019,3.1967,3.2061,3.2082,3.2212,3.2287,3.215,3.2159,3.2556,3.2564,3.2571,3.2659,0,0,0,0,0,0,3.1649,3.1682,3.1742,3.1804,3.1836,3.2019,3.1932,3.1936,3.1986,3.1979,3.2047,3.2053,3.2059,3.2197,3.2222,3.2298,3.2167,3.2549,3.256,3.2569,3.2649,3.2668,3.2685,0,0,0,0,0,3.1638,3.1763,3.1746,3.1773,3.1912,3.2024,3.2041,3.2045,3.1993,3.2053,3.2081,3.2051,3.2275,3.2211,3.2239,3.2319,3.2545,3.2557,3.2568,3.2641,3.2665,3.2684,0,0,0,0,0,0,3.171,3.1771,3.1753,3.1901,3.1957,3.2014,3.2091,3.207,3.2143,3.2133,3.2135,3.215,3.2284,3.2315,3.2242,3.2474,3.2402,3.242,3.2448,3.2471,3.2488,3.2477,3.2175,0,0,0,0,0,3.1742,3.1828,3.1877,3.2003,3.2032,3.2057,3.2106,3.2103,3.2162,3.2186,3.2223,3.2282,3.2365,3.242,3.2499,3.2654,3.2667,3.2723,3.274,3.2755,3.277,3.2851,3.2876,3.2613,3.2613,3.2612,0,0,3.1812,3.1856,3.191,3.2019,3.2062,3.215,3.2077,3.2175,3.2239,3.2201,3.2325,3.2355,3.242,3.2562,3.2626,3.2592,3.2845,3.277,3.2781,3.2788,3.2865,3.289,3.2912,3.2621,3.2619,3.2618,0,0,3.1982,3.2025,3.2133,3.2177,3.2243,3.2258,3.2285,3.2345,3.2362,3.2487,3.2459,3.2536,3.2681,3.2727,3.277,3.2956,3.293,3.2982,3.3075,3.3154,3.3175,3.3193,3.3257,3.328,3.2997,3.2997,3.2997,0,3.2059,3.2191,3.2191,3.229,3.2338,3.2306,3.2414,3.2458,3.2547,3.2581,3.2541,3.2719,3.2761,3.2912,3.2957,3.2994,3.3022,3.2973,3.3171,3.319,3.3207,3.3268,3.3292,3.3003,3.3002,3.3002,3.3001,0,3.2281,3.2373,3.2453,3.2537,3.2594,3.2698,3.2714,3.2771,3.2764,3.2783,3.2909,3.2958,3.3045,3.3081,3.3076,3.3231,3.3207,3.317,3.3098,3.3238,3.3295,3.3318,3.3011,3.3009,3.3007,3.3006,0,0,3.2501,3.2583,3.2612,3.2649,3.2719,3.2789,3.2891,3.2975,3.3023,3.3086,3.3169,3.3291,3.3256,3.3304,3.3304,3.3374,3.3514,3.3327,3.3328,3.3358,3.3686,3.3712,3.3739,3.3498,3.3503,3.3507,3.3679,0,3.2674,3.2851,3.2853,3.3016,3.3099,3.3069,3.3157,3.3209,3.323,3.3303,3.3326,3.3411,3.3359,3.3388,3.3456,3.3483,3.358,3.3471,3.3575,3.3579,3.3558,3.3769,3.3798,3.3959,3.3702,3.3706,3.3709,0,3.2901,3.2968,3.3138,3.3193,3.3228,3.3307,3.3383,3.3454,3.3512,3.3522,3.3575,3.3563,3.3666,3.3591,3.3732,3.3658,3.3701,3.372,3.3727,3.3735,3.3651,3.3781,3.4011,3.4034,3.3744,3.3742,3.3739,0,3.304,3.3174,3.3291,3.3324,3.3393,3.3448,3.3479,3.3532,3.3582,3.3649,3.3681,3.3759,3.3802,3.3863,3.3872,3.3818,3.4013,3.394,3.4023,3.4023,3.4064,3.4061,3.4301,3.4096,3.4095,3.4095,3.4094,0,3.3232,3.3337,3.3354,3.3427,3.3543,3.3545,3.3659,3.3686,3.3733,3.381,3.379,3.3863,3.3872,3.3947,3.3955,3.4068,3.4089,3.4099,3.4099,3.4099,3.4098,3.4126,3.4115,3.4101,3.41,3.4098,3.4097,0,3.3407,3.3423,3.355,3.3603,3.3619,3.3701,3.3747,3.3816,3.3834,3.3931,3.3954,3.3982,3.4069,3.4085,3.4188,3.4193,3.4328,3.4319,3.4308,3.4306,3.4387,3.4378,3.4653,3.4688,3.4461,3.4463,3.4465,0,3.3527,3.3607,3.3668,3.3717,3.375,3.3831,3.388,3.3885,3.3938,3.4009,3.4069,3.4153,3.4221,3.4361,3.4391,3.4469,3.446,3.455,3.4471,3.4468,3.4458,3.4452,3.4459,3.4565,3.4567,3.4569,3.4571,0,3.3739,3.3742,3.3814,3.3889,3.3949,3.4008,3.4064,3.4106,3.4118,3.4179,3.4266,3.4318,3.4422,3.4506,3.4583,3.4615,3.4595,3.4596,3.4618,3.4618,3.4608,3.4612,3.4347,3.4589,3.4587,3.4586,3.4585,3.4584,3.3889,3.3956,3.4009,3.4089,3.4132,3.4184,3.4251,3.4276,3.4349,3.4433,3.4432,3.4527,3.4581,3.4683,3.472,3.4794,3.4766,3.4799,3.4808,3.4815,3.4822,3.4597,3.4809,3.4809,3.4808,3.4808,3.4807,0,3.4097,3.4128,3.4202,3.428,3.4343,3.4318,3.4378,3.4433,3.4517,3.4568,3.4635,3.4734,3.4815,3.485,3.4929,3.4982,3.4975,3.5003,3.4998,3.5005,3.4844,3.4815,3.5007,3.5007,3.5007,3.5007,3.5007,3.5007,3.4212,3.4324,3.4334,3.4467,3.4498,3.4591,3.4627,3.4675,3.4716,3.4827,3.4893,3.4916,3.4961,3.5043,3.5115,3.5123,3.5152,3.5184,3.5188,3.5037,3.5017,3.4997,3.497,3.5191,3.5191,3.5342,3.5344,3.5345]},{"header":{"parameterUnit":"m.s-1","parameterCategory":1,"la1":30.2991,"la2":30.254,"lo1":-89.0895,"lo2":-89.0444,"dy":0.0017,"dx":0.0017,"nx":28,"ny":28,"refTime":"2025-05-29T21:00:00:Z","depth":0,"parameterNumber":3,"parameterNumberName":"V-component_of_WINDS"},"data":[0,0,0,0,0,0,0,0,0,0,0,0,0,0,0,0,0,0,0,0,0,0,0,0,0,0,0,0,0,0,0,0,0,0,0,0,0,0,0,0,0,0,0,0,0,0,0,0,0,0,0,0,0,0,0,0,0,0,2.5533,2.5533,0,2.5556,2.5556,2.5556,2.5491,2.5489,2.5487,2.5485,2.5509,2.5511,2.5514,0,0,0,0,0,0,0,0,0,0,0,0,0,2.5432,2.5435,2.5533,2.5533,2.5534,2.5556,2.5556,2.5556,2.5492,2.5489,2.5487,2.5484,2.5508,2.5511,2.5514,0,0,0,0,0,0,0,0,0,0,0,0,0,2.5468,2.5435,2.5533,2.5504,2.5502,2.5555,2.5556,2.5556,2.5492,2.5489,2.5486,2.5483,2.5507,2.5511,2.5514,2.5597,0,0,2.5526,2.5527,0,0,0,0,0,0,0,0,2.5466,2.5472,2.5508,2.5506,2.5504,2.5517,2.5529,2.557,2.5493,2.5496,2.5485,2.5482,2.5514,2.5517,2.5528,2.5598,2.5599,2.5526,2.5528,2.553,2.5531,0,0,0,0,0,0,0,2.5464,2.547,2.5542,2.5509,2.5506,2.5489,2.5491,2.5536,2.5521,2.5495,2.5491,2.5494,2.5512,2.5524,2.5528,2.56,2.5526,2.5529,2.5531,2.5533,2.5736,2.5739,0,0,0,0,0,0,2.5465,2.5469,2.5541,2.5543,2.5477,2.5494,2.5495,2.5516,2.5521,2.5519,2.5497,2.5491,2.552,2.5524,2.5529,2.5624,2.553,2.5533,2.5535,2.5733,2.5737,2.574,0,0,0,0,0,0,2.5463,2.5472,2.554,2.5504,2.5512,2.5499,2.5522,2.5518,2.553,2.5522,2.5519,2.5512,2.5517,2.5523,2.558,2.5624,2.5535,2.5538,2.5729,2.5734,2.5739,2.5817,0,0,0,0,0,0,2.546,2.5472,2.5504,2.5506,2.5514,2.5592,2.5525,2.5521,2.5537,2.553,2.5535,2.5533,2.5515,2.5575,2.5584,2.5627,2.5541,2.5725,2.5732,2.5737,2.581,2.5824,2.5835,0,0,0,0,0,2.5457,2.5526,2.5506,2.5515,2.5554,2.5595,2.56,2.5577,2.5541,2.5572,2.5566,2.5533,2.5618,2.5581,2.5591,2.5636,2.5722,2.573,2.5737,2.5805,2.5821,2.5835,0,0,0,0,0,0,2.553,2.5525,2.5503,2.5574,2.5585,2.5584,2.5623,2.5596,2.5618,2.561,2.5582,2.5584,2.5645,2.5646,2.5605,2.5715,2.5664,2.5673,2.5712,2.5728,2.574,2.5738,2.5544,0,0,0,0,0,2.5554,2.5588,2.5582,2.5646,2.5652,2.5637,2.5654,2.5636,2.5646,2.565,2.5649,2.566,2.5689,2.5708,2.5735,2.581,2.5809,2.5846,2.5859,2.5869,2.5877,2.5915,2.593,2.5764,2.5764,2.5764,0,0,2.5605,2.5607,2.563,2.566,2.5667,2.5702,2.5641,2.5682,2.5707,2.5657,2.5709,2.5709,2.5719,2.5785,2.5814,2.5788,2.5923,2.5878,2.5886,2.5889,2.5924,2.5939,2.5954,2.5769,2.5768,2.5767,0,0,2.5715,2.572,2.5772,2.5779,2.5789,2.5778,2.5791,2.5793,2.579,2.5843,2.5805,2.5835,2.5885,2.5893,2.5904,2.6015,2.5985,2.6024,2.6089,2.6126,2.6139,2.6151,2.6189,2.6203,2.6033,2.6033,2.6033,0,2.5777,2.5828,2.5803,2.5845,2.5858,2.5813,2.5865,2.5873,2.5892,2.5902,2.5872,2.5933,2.5938,2.6004,2.603,2.6041,2.6053,2.6023,2.614,2.6151,2.6161,2.6197,2.6211,2.6037,2.6037,2.6036,2.6036,0,2.5902,2.5939,2.5979,2.5997,2.6015,2.6062,2.6043,2.6064,2.6044,2.6036,2.6089,2.6092,2.6117,2.6131,2.6112,2.6194,2.6177,2.6145,2.6092,2.6182,2.6215,2.6229,2.6044,2.6042,2.6041,2.604,0,0,2.606,2.6061,2.6076,2.6083,2.6089,2.6117,2.6161,2.6184,2.6202,2.6216,2.6251,2.6294,2.6263,2.6275,2.6257,2.629,2.6375,2.6252,2.6252,2.6274,2.6463,2.6487,2.6503,2.6355,2.6357,2.6359,2.6461,0,2.6167,2.6242,2.6219,2.6294,2.6326,2.6283,2.6321,2.6329,2.6322,2.6348,2.634,2.637,2.6328,2.6334,2.6365,2.6358,2.6412,2.635,2.6386,2.6388,2.6384,2.652,2.6546,2.6642,2.6474,2.6476,2.6478,0,2.6302,2.6319,2.6397,2.6396,2.6409,2.6444,2.6462,2.6488,2.6495,2.6487,2.65,2.6474,2.6516,2.6464,2.6521,2.6479,2.6492,2.6491,2.6494,2.6496,2.6438,2.6525,2.6673,2.6687,2.6498,2.6497,2.6495,0,2.6406,2.645,2.6501,2.6508,2.6509,2.6534,2.6535,2.654,2.6555,2.6571,2.658,2.6602,2.6613,2.663,2.661,2.6574,2.6669,2.6615,2.6663,2.6663,2.6684,2.6683,2.6835,2.6695,2.6695,2.6695,2.6694,0,2.6527,2.6576,2.6548,2.658,2.6633,2.6606,2.6659,2.6656,2.6659,2.6689,2.6654,2.6682,2.6655,2.668,2.6665,2.6713,2.6719,2.6714,2.6709,2.6716,2.6717,2.6724,2.6716,2.6698,2.6698,2.6697,2.6696,0,2.6653,2.6636,2.6689,2.6685,2.6685,2.6724,2.672,2.6749,2.6738,2.6776,2.6784,2.6768,2.6796,2.6778,2.6807,2.6797,2.6859,2.6846,2.6856,2.6852,2.69,2.6895,2.7061,2.7081,2.693,2.6931,2.6932,0,2.6731,2.6767,2.6766,2.6783,2.6786,2.6815,2.6829,2.6803,2.682,2.683,2.6857,2.6882,2.6901,2.6948,2.6939,2.696,2.6946,2.7003,2.6949,2.6955,2.6945,2.6943,2.6945,2.7013,2.7015,2.7017,2.7018,0,2.687,2.6859,2.6881,2.69,2.6918,2.6932,2.6943,2.6959,2.6933,2.6953,2.6981,2.6995,2.7024,2.7049,2.7066,2.7067,2.7038,2.7035,2.7046,2.7054,2.7058,2.7055,2.6885,2.7031,2.703,2.7029,2.7028,2.7027,2.6973,2.7002,2.7005,2.7031,2.7036,2.7046,2.7072,2.7064,2.7087,2.7108,2.7092,2.7125,2.7129,2.7149,2.7154,2.7179,2.7155,2.7173,2.7177,2.7182,2.7188,2.7055,2.7182,2.7182,2.7181,2.7181,2.7181,0,2.7108,2.7108,2.7131,2.7147,2.7166,2.7136,2.7146,2.7165,2.7194,2.72,2.7219,2.725,2.7273,2.7266,2.7286,2.7308,2.7295,2.7314,2.7311,2.7312,2.7208,2.7195,2.7324,2.7324,2.7324,2.7324,2.7324,2.7324,2.7181,2.7229,2.7218,2.7267,2.7266,2.7297,2.7305,2.7314,2.7319,2.7355,2.7374,2.7369,2.7369,2.7389,2.7409,2.7406,2.7415,2.7438,2.7431,2.7334,2.7319,2.7306,2.7293,2.7441,2.7441,2.7532,2.7533,2.7533]}]]